Voltar ao catálogo

CZ-4 DEB

AtivoPO
NORAD 26211·DEBRIS·🇨🇳 China

Lançado Oct 14, 1999 de Taiyuan Satellite Launch Center

Loading…

Próximas Passagens (próximas 24 horas)

TLE

AtualizadoSource: Space-Track

Época: Sep 14, 2026, 14:02 UTC

1 26211U 99057CZ  26257.58527286  .00000019  00000-0  48029-4 0  9994
2 26211  98.9209 307.2123 0540121  35.5517 117.7744 13.33469837286079

Acompanhe CZ-4 DEB em tempo real com AllMySat

Download on the App Store